SCP
8 7 6 6 7 7 8 8 8 8 7 8 11 11 9 7 7 7 6 6 6 6 6 5 5 4 4 3 3 3 4 4 4 3 3 3 3 3 4 4 4 3 2
7 7 6 6 6 6 7 8 8 9 9 9 11 12 11 9 8 8 8 7 8 8 8 7 7 6 6 5 4 3 4 4 4 3 3 3 3 3 4 4 4 3 2
8 7 6 6 6 6 7 7 8 9 10 10 11 13 13 12 11 11 10 10 10 11 11 11 11 10 8 7 5 4 4 4 4 4 4 3 3 3 4 4 3 2 2
8 7 6 6 6 7 7 7 7 8 9 10 11 12 13 13 13 13 12 12 13 13 14 15 14 13 11 9 7 5 4 4 4 4 3 3 4 5 5 4 3 2 2
8 7 6 6 6 7 7 7 7 8 8 9 10 10 11 11 11 11 11 12 14 15 16 17 17 15 13 11 9 7 5 4 4 3 3 3 5 7 6 4 3 2 2
9 8 7 8 7 7 6 6 7 8 9 9 10 9 9 8 6 6 7 10 12 15 16 17 17 15 14 12 10 7 6 4 3 3 3 3 5 6 6 4 3 2 2
10 9 10 10 10 8 7 7 8 9 9 9 9 9 8 7 5 3 4 6 10 13 16 17 16 14 14 13 11 8 6 5 3 3 3 4 5 5 6 5 3 3 2
9 10 11 12 11 10 8 8 9 10 9 9 8 8 8 7 5 3 3 4 8 10 13 15 16 15 14 13 13 11 9 6 3 3 3 4 5 5 6 4 3 2 2
8 10 12 12 12 10 9 8 9 9 9 8 7 7 7 7 6 4 3 5 7 9 10 12 13 14 13 12 13 13 11 7 4 2 3 3 3 3 4 3 3 2 2
8 10 12 12 11 10 10 9 10 10 10 9 7 6 6 6 6 4 3 5 8 9 10 11 11 10 9 8 10 13 12 8 5 3 2 2 2 1 2 3 3 3 3
8 9 10 10 9 8 9 10 11 11 10 9 7 6 5 5 5 4 3 4 7 9 10 11 10 8 5 4 6 8 8 6 5 4 3 2 2 1 2 2 3 3 3
10 10 9 8 6 6 7 8 9 10 9 8 7 6 5 5 5 4 2 2 4 7 8 9 8 6 3 1 2 3 4 3 3 4 3 3 3 3 3 3 3 2 2
12 11 10 8 6 6 6 7 7 8 8 7 7 7 6 6 6 4 2 1 2 4 5 5 5 4 2 1 1 1 1 2 3 4 4 4 4 5 5 4 3 2 2
14 13 11 9 8 7 8 8 8 8 8 9 9 8 8 7 7 6 4 3 2 2 3 3 3 2 2 2 2 2 2 3 4 4 5 4 4 4 4 4 3 3 3
15 13 12 10 8 8 8 9 8 8 8 10 10 9 8 8 7 7 6 5 4 3 3 4 4 3 3 4 4 4 4 4 5 5 4 4 2 2 2 3 3 3 3
13 12 11 10 8 7 8 10 10 8 7 8 9 8 7 6 6 5 4 4 3 3 4 5 5 5 5 5 5 5 5 6 6 6 5 3 2 1 2 3 3 3 2
9 9 8 9 8 6 6 8 9 9 7 6 5 5 4 3 3 2 2 2 1 2 4 5 6 6 6 6 6 6 6 8 8 7 5 3 1 1 2 2 3 3 3
6 5 5 6 7 6 4 5 6 7 8 7 5 3 1 1 1 1 1 1 1 2 4 5 6 6 6 6 6 6 7 8 8 6 3 2 1 1 1 2 3 3 3
4 4 4 4 4 5 5 4 4 5 6 7 7 4 2 1 1 0 0 1 2 3 4 5 5 6 7 7 8 8 8 6 5 3 2 1 1 1 1 2 3 3 2
4 4 4 3 2 3 5 5 4 4 6 7 8 7 4 2 2 2 1 1 2 3 4 4 5 6 8 9 10 10 8 5 2 1 1 1 1 1 2 3 3 3 2
3 3 2 2 1 2 3 4 5 5 6 6 7 7 4 3 3 3 2 2 3 3 3 4 4 6 9 11 12 11 8 4 1 1 1 1 1 1 2 3 3 2 2
1 1 1 1 1 1 1 3 5 5 5 5 5 4 3 4 5 4 3 3 3 4 4 6 6 7 9 11 11 9 6 3 1 1 1 1 1 1 2 2 2 1 1
1 1 0 0 0 0 1 2 3 3 3 3 3 3 3 4 5 4 3 3 3 4 6 8 9 8 8 9 9 7 4 2 1 1 2 2 2 1 1 1 1 1 1
1 1 0 0 0 0 0 1 1 1 2 2 2 2 3 4 4 4 3 3 4 4 6 8 9 8 6 6 6 5 3 1 1 1 2 2 2 2 1 1 1 1 1
1 1 1 1 1 1 0 0 0 1 1 1 2 3 4 4 4 4 5 6 5 4 5 5 6 6 5 4 4 3 1 1 0 1 2 2 2 2 1 1 1 1 1
1 1 1 1 1 1 0 0 0 0 0 1 1 3 4 4 4 4 6 8 7 4 3 3 4 5 5 4 3 2 1 0 0 1 2 3 2 2 1 1 1 1 1
Wind_Speed
4 4 3 3 3 3 2 2 1 1 1 1 1 1 1 1 1 1 2 1 2 2 2 2 3 2 2 2 1 1 1 2 2 2 1 1 1 2 2 2 3 4 5
3 3 3 3 2 2 2 2 2 2 2 1 1 1 2 1 1 2 2 2 2 2 3 2 3 2 2 2 1 2 2 2 2 2 2 2 2 2 3 3 3 4 3
4 3 2 2 2 2 2 2 2 2 2 2 2 2 2 2 2 2 2 2 2 2 2 2 3 3 2 2 3 2 2 2 2 2 2 2 2 2 2 2 3 2 3
3 3 2 2 1 1 1 2 2 2 3 3 3 3 3 3 3 2 2 3 2 3 2 2 3 2 2 3 3 3 2 2 2 2 2 2 1 2 2 2 2 1 2
3 2 2 2 1 1 2 2 2 3 4 3 3 3 3 3 3 2 3 4 3 3 3 3 3 2 2 2 2 2 2 2 2 2 2 1 1 1 2 2 2 2 2
2 2 2 2 2 2 2 2 2 3 3 3 3 3 4 4 3 3 2 3 3 3 4 3 3 4 4 5 5 5 5 4 3 3 3 2 2 2 2 2 2 2 2
2 1 2 2 2 3 3 2 3 3 3 3 3 4 4 3 3 3 3 4 4 3 4 3 4 4 4 4 5 6 7 8 7 5 4 3 3 3 2 3 2 2 3
2 2 2 2 2 2 2 3 3 3 3 3 4 4 4 4 4 4 4 5 5 5 4 4 4 3 3 2 3 4 5 5 6 6 4 4 3 2 3 3 3 3 3
2 1 1 1 2 2 3 3 3 3 4 4 4 4 4 4 5 5 4 4 4 5 5 4 3 3 2 2 3 4 4 3 4 4 4 4 4 4 3 2 2 2 3
2 1 1 2 2 3 3 3 4 4 4 4 4 4 5 4 6 7 6 4 4 4 3 3 3 3 3 3 3 3 4 3 3 3 3 4 4 5 6 4 3 3 3
1 1 2 2 3 3 3 3 3 4 4 4 4 4 4 5 6 7 7 4 3 3 3 3 2 4 4 5 4 4 4 3 4 4 4 4 4 4 4 4 3 3 3
1 1 2 2 3 3 2 3 4 4 5 4 4 4 4 4 5 7 8 8 5 4 4 2 1 4 4 5 5 5 4 3 3 3 3 3 3 3 3 3 3 3 2
2 2 2 3 3 2 3 3 3 3 4 3 3 4 3 2 3 5 7 7 8 5 3 2 2 4 4 5 7 7 4 3 3 3 3 2 2 2 2 2 2 2 3
2 2 2 3 3 3 3 3 3 3 3 3 3 3 2 2 1 2 2 3 5 5 4 4 4 6 5 4 4 4 4 4 4 3 3 2 2 2 2 2 2 2 2
3 3 3 4 3 3 3 3 3 2 3 4 3 3 3 2 1 2 2 3 3 3 3 4 4 3 3 4 3 4 4 3 4 3 2 2 2 2 2 2 2 1 2
3 3 3 3 3 3 2 3 3 3 4 5 6 5 3 2 2 3 3 3 4 3 3 4 4 4 4 4 3 3 3 3 3 2 2 2 2 2 2 2 2 2 2
3 3 4 3 3 3 3 3 3 3 4 5 6 6 6 5 4 3 3 2 3 3 4 4 4 3 3 3 3 3 2 2 2 2 2 2 2 2 2 2 2 2 2
4 3 4 3 3 4 3 4 4 3 3 3 4 6 7 7 7 5 3 1 2 3 4 4 3 3 3 3 2 2 2 2 2 2 2 2 2 2 2 2 2 2 2
4 3 3 3 3 4 3 4 4 4 4 3 2 2 5 6 5 5 4 3 4 4 4 4 3 3 2 2 2 2 2 2 2 2 2 2 2 2 2 2 2 2 2
3 4 4 4 4 4 4 4 4 3 3 3 3 2 2 3 3 3 4 4 4 4 4 3 2 2 2 1 1 1 1 1 1 2 2 2 2 2 2 2 2 2 3
3 3 4 4 4 3 3 4 3 3 4 3 3 2 2 3 3 3 3 3 3 3 3 3 2 1 1 1 1 1 1 1 1 1 1 1 1 2 2 2 2 2 2
3 3 3 3 3 3 3 4 4 3 3 4 3 3 2 3 3 2 1 2 2 2 2 2 2 1 1 1 1 1 1 1 0 1 1 1 2 2 2 2 2 2 2
4 4 3 3 3 3 4 3 3 3 3 3 3 3 2 2 3 2 2 1 1 1 1 1 1 1 1 0 1 1 0 1 1 1 1 2 2 2 2 2 2 2 2
5 5 4 4 3 3 3 3 3 4 3 3 3 3 2 2 3 3 2 1 1 0 0 0 0 1 2 2 1 1 1 1 2 1 2 2 3 2 2 2 2 2 2
4 4 4 4 3 3 3 3 3 3 3 3 3 3 3 2 2 2 2 1 1 1 1 0 1 1 1 2 2 1 2 2 2 2 2 3 3 3 2 2 2 2 2
5 4 4 3 3 3 3 3 3 3 3 3 3 2 2 2 2 2 2 2 2 1 0 0 1 2 1 2 2 3 2 1 1 2 3 2 3 2 1 2 2 2 2
Wind_Direction
172 189 177 167 176 183 191 198 223 230 217 223 246 234 237 237 234 232 240 237 228 236 246 228 228 234 262 269 246 230 216 199 223 259 221 212 194 186 178 205 194 196 193
169 175 180 167 178 188 200 210 214 225 230 224 224 231 233 224 236 250 253 249 234 230 237 241 246 232 240 253 262 249 233 223 211 232 239 221 215 199 198 223 217 210 192
165 169 169 172 183 203 215 212 215 225 233 229 230 234 246 247 240 248 256 261 260 251 242 235 238 232 235 241 248 250 241 240 221 227 237 225 208 209 201 232 246 223 218
157 170 173 198 191 208 229 225 228 234 233 226 227 231 230 239 245 243 248 252 256 258 254 249 248 237 234 249 250 247 247 241 233 233 233 226 213 210 187 219 252 235 241
158 172 185 196 185 212 218 226 233 245 249 234 230 232 232 234 235 230 247 247 242 250 251 246 243 220 218 235 261 264 262 247 242 237 241 234 226 214 217 224 241 239 239
174 186 184 194 195 213 227 225 228 242 254 248 237 233 242 247 225 199 235 265 249 246 249 248 230 216 214 215 227 238 238 238 237 240 240 236 232 225 209 230 240 249 252
196 213 195 205 212 212 227 229 230 238 244 252 247 237 235 236 216 207 225 252 258 252 251 249 262 238 212 217 226 235 238 238 229 234 246 244 238 226 214 231 240 245 252
207 211 218 216 226 227 228 232 237 241 243 247 249 244 235 228 211 215 230 245 252 247 243 244 247 241 247 253 246 245 241 239 233 233 243 251 252 246 227 230 232 246 253
231 226 228 230 235 230 231 237 240 242 248 243 245 245 241 226 210 214 215 250 247 247 243 243 249 233 228 246 252 257 261 253 243 236 240 245 238 239 234 238 236 233 254
269 265 244 219 233 241 237 239 242 240 247 249 245 243 240 231 210 212 210 244 253 248 239 229 220 214 199 211 235 253 260 267 269 249 238 239 232 229 222 215 225 234 252
278 259 246 222 235 232 228 244 247 247 248 248 251 249 239 229 206 205 203 230 259 260 247 229 213 189 203 216 227 237 246 261 269 252 234 229 223 218 214 216 217 219 239
287 261 258 251 258 247 234 249 253 254 253 243 243 251 242 221 207 200 203 217 247 263 262 248 192 183 208 224 229 242 243 250 255 254 249 240 226 220 217 206 202 215 228
287 267 262 261 258 250 240 249 250 249 254 256 244 249 250 235 194 193 206 225 242 252 270 282 265 226 218 226 234 242 240 236 239 245 250 246 236 224 210 199 202 212 237
293 288 273 264 259 257 252 249 248 253 256 260 259 257 252 237 210 182 211 231 242 252 264 270 247 231 231 240 235 223 223 229 230 237 243 240 243 232 215 202 205 210 225
292 288 283 276 271 265 265 275 265 266 253 247 266 275 272 263 245 213 234 241 242 242 259 254 238 220 222 221 218 212 212 220 232 234 238 241 243 241 225 206 205 210 227
296 292 284 284 285 279 277 294 306 268 244 232 235 245 263 245 227 227 234 246 244 232 239 250 244 237 232 229 225 224 212 216 227 236 230 227 233 243 234 214 202 207 226
281 280 280 282 283 283 283 276 276 276 260 255 251 244 242 249 244 238 247 269 261 219 229 245 247 242 238 232 227 226 221 211 211 215 226 230 232 233 235 229 222 219 219
276 272 277 279 276 274 276 279 277 273 272 267 253 237 234 238 240 235 221 229 255 223 238 246 246 249 241 229 222 217 214 205 204 214 220 220 229 229 225 229 229 233 227
282 283 286 291 287 285 281 279 283 282 275 268 259 241 233 231 234 233 195 224 250 249 242 244 244 240 241 232 219 205 203 203 202 214 224 223 227 230 220 219 224 226 235
271 268 271 283 286 284 283 285 287 292 289 285 281 277 240 216 220 207 199 223 241 249 253 257 252 255 246 219 211 222 214 195 210 226 228 221 215 224 234 219 223 225 225
287 276 263 274 281 291 295 294 296 295 297 298 298 300 269 256 251 237 211 213 235 255 264 272 276 277 253 218 210 221 225 214 220 251 270 249 229 221 231 234 226 230 232
296 286 279 280 284 293 297 293 293 292 297 299 300 303 265 282 290 289 259 220 217 226 248 264 276 300 292 258 207 218 225 229 251 264 266 265 248 240 235 230 229 241 236
280 276 275 277 282 284 286 292 296 301 304 305 306 307 300 288 297 305 291 281 264 245 239 241 269 309 346 16 88 94 250 267 271 278 271 267 259 260 259 251 240 239 235
285 289 286 279 280 281 279 285 292 297 301 307 311 312 305 299 304 309 304 307 324 313 344 332 354 12 9 7 58 72 40 350 315 306 298 276 265 254 247 249 258 255 242
288 293 292 293 285 279 282 285 288 293 298 300 298 299 299 298 301 307 317 346 337 307 310 60 85 67 50 51 51 47 61 45 11 342 299 272 266 259 244 249 247 255 255
291 292 289 290 291 288 290 292 294 296 292 294 300 304 307 307 311 313 325 337 328 329 317 132 107 92 73 71 66 78 96 81 3 318 298 280 269 262 265 261 250 247 251